Regional Weather Roundup
Issued by NWS Kansas City/Pleasant Hill, MO

Home | Current Version | Previous Version | Graphics & Text | Print | Product List | Glossary Off
Versions: 1 2 3 4 5 6 7 8 9 10 11 12 13 14 15 16 17 18 19 20 21 22 23 24 25 26 27 28 29 30 31 32 33 34 35 36 37 38 39 40 41 42 43 44 45 46 47 48 49 50

597
ASUS43 KEAX 200510
RWREAX

WEATHER ROUNDUP FOR EASTERN KANSAS AND NORTHWEST MISSOURI
NATIONAL WEATHER SERVICE KANSAS CITY/PLEASANT HILL MO
1100 PM CST SUN FEB 19 2017

KSZ040-057-103>105-MOZ028-029-037-043-200600-
...KANSAS CITY METROPOLITAN AREA...

CITY           SKY/WX    TMP DP  RH WIND       PRES   REMARKS
K.C. INTL      MOCLDY    59  53  80 SE10      29.88F
K.C. DOWNTOWN  MOCLDY    67  54  63 SE7       29.89F
LEES SUMMIT    PTCLDY    63  55  75 SE12      29.91F
OLATHE - IXD   MOCLDY    61  53  75 SE12      29.89F
OLATHE - OJC   PTCLDY    60  54  80 SE9       29.89F
LAWRENCE       PTCLDY    53  51  93 E7        29.88F

$$

MOZ001>008-011>017-020>025-030>033-038>040-044>046-053-054-200600-
...NORTHERN AND CENTRAL MISSOURI...

CITY           SKY/WX    TMP DP  RH WIND       PRES   REMARKS
ST. JOSEPH     CLEAR     60  55  83 SE7       29.87F
WARRENSBURG    PTCLDY    61  54  77 SE13      29.92F
WHITEMAN AFB   CLEAR     62  62  97 S10       29.93S
CLINTON        PTCLDY    63  55  77 SE8       29.94F
SEDALIA        CLEAR     64  56  75 SE14      29.96F
WARSAW         NOT AVBL
CHILLICOTHE      N/A     63  49  60 SE7       29.92F
KIRKSVILLE     PTCLDY    58  49  72 SE9       29.96S

$$

MOZ041-047>049-056>058-063>065-088>090-097-200600-
...EASTERN AND SOUTHERN MISSOURI...

CITY           SKY/WX    TMP DP  RH WIND       PRES   REMARKS
ST. LOUIS INTL CLOUDY    60  52  74 SE10      30.06S
SPIRIT OF STL  CLOUDY    57  51  80 E3        30.04S
COLUMBIA       CLOUDY    62  55  77 S13       30.00R
JEFFERSON CITY PTCLDY    63  54  72 SE8       30.00R
ROLLA          CLEAR     59  54  83 S13       30.02S
OSAGE BEACH    CLEAR     61  55  81 S10G18    30.00F
SPRINGFIELD    CLEAR     62  56  80 SE16      29.97F
BRANSON        CLOUDY    59  57  94 SE12      30.01F
JOPLIN         PTCLDY    66  56  70 SE8       29.92F
WEST PLAINS    CLEAR     56  54  93 SE5       30.06F

$$

IAZ060-094-KSZ022-034>040-054-083-096-NEZ052-066-093-200600-
...KANSAS...SOUTHEAST NEBRASKA AND IOWA...

CITY           SKY/WX    TMP DP  RH WIND       PRES   REMARKS
TOPEKA         PTCLDY    53  50  89 E5        29.86F
MANHATTAN      CLOUDY    58  54  86 CALM      29.82F
EMPORIA        CLOUDY    61  57  87 SE13      29.85S
CHANUTE        CLOUDY    64  56  75 SE9       29.89R
WICHITA        TSTM      61  59  94 E8        29.79F FOG
OMAHA          CLOUDY    59  52  77 S15       29.83F
LINCOLN        PTCLDY    56  53  90 S9        29.81F
FALLS CITY     CLOUDY    55  52  89 CALM      29.85F
LAMONI         PTCLDY    61  46  57 S9        29.90S
DES MOINES     MOCLDY    59  46  62 SE10      29.89S

$$





USA.gov is the U.S. government's official web portal to all federal, state and local government web resources and services.